Terminal Aerodrome Forecast
Issued by NWS Sterling, VA

Home | Current Version | Previous Version | Text Only | Print | Product List | Glossary On
Versions: 1 2 3 4 5 6 7 8 9 10 11 12 13 14 15 16 17 18 19 20 21 22 23 24 25 26 27 28 29 30 31 32 33 34 35 36 37 38 39 40 41 42 43 44 45 46 47 48 49 50
000
FTUS41 KLWX 161137
TAFIAD
TAF
KIAD 161137Z 1612/1718 VRB03KT 2SM -SNPL OVC015
     FM161600 10005KT 2SM -RA OVC003
     FM170000 06004KT 1 1/2SM -RA OVC003
     FM171200 18005KT 1SM -RA OVC008
     FM171500 22006KT P6SM -RA OVC008=

USA.gov is the U.S. government's official web portal to all federal, state and local government web resources and services.